Location: Mohawk View
(42.7837°N, 73.7885°W)
Time: 16:53:24
(UTC+00:00)

Cosmos 2219 Rocket - Pass Details

Date: 17 June 2021
Orbit: 829 x 845 km, 71.0° (Epoch: 02 August)

Event Time Altitude Azimuth Distance (km) Brightness Sun altitude
Exits shadow 04:11:01 12° 240° (WSW) 2,319 4.3 -23.0°
Maximum altitude 04:15:45 36° 303° (WNW) 1,322 3.5 -23.2°
Drops below altitude 10° 04:20:57 10° 10° (N) 2,473 5.6 -23.3°
Sets 04:23:37 0° 19° (NNE) 3,410 6.4 -23.4°
